Regional Weather Roundup
Issued by NWS

Home | Current Version | Previous Version | Graphics & Text | Print | Product List | Glossary On
Versions: 1 2 3 4 5 6 7 8 9 10 11 12 13 14 15 16 17 18 19 20 21 22 23 24 25 26 27 28 29 30 31 32 33 34 35 36 37 38 39 40 41 42 43 44 45 46 47 48 49 50
000
ASUS43 KDMX 231406
RWRIA

WEATHER ROUNDUP FOR IOWA
NATIONAL WEATHER SERVICE DES MOINES IA
900 AM CDT SUN APR 23 2017

NOTE: "FAIR" INDICATES FEW OR NO CLOUDS BELOW 12,000 FEET WITH NO
SIGNIFICANT WEATHER AND/OR OBSTRUCTIONS TO VISIBILITY.

* - THESE STATIONS ARE NOT NWS STATIONS...THUS NOT UNDER NWS
QUALITY CONTROL.  THEY ALSO DO NOT REPORT WEATHER SUCH
AS PRECIPITATION OR FOG.

IAZ001>003-012>014-020>022-031>034-043>046-231500-
   NORTHWEST IOWA

CITY           SKY/WX    TMP DP  RH WIND       PRES   REMARKS
CARROLL *      SUNNY     57  37  47 SW9       30.14S
CHEROKEE *     SUNNY     50  43  75 SW5       30.13S
DENISON *      SUNNY     52  41  66 SW5       30.15F
LE MARS *      SUNNY     52  39  62 S9        30.13S
ORANGE CITY *  SUNNY     55  37  50 SW13      30.11S
SHELDON *      SUNNY     54  36  50 SW12      30.09S
SIOUX CITY     SUNNY     55  37  50 SW8       30.13S
SPENCER        SUNNY     56  37  49 SW12      30.11F
STORM LAKE *   SUNNY     55  34  44 SW10      30.13S
$$

IAZ055>058-069>071-079>083-090>094-231500-
   SOUTHWEST IOWA

CITY           SKY/WX    TMP DP  RH WIND       PRES   REMARKS
ATLANTIC *     SUNNY     48  37  66 SW5       30.16F
AUDUBON *      SUNNY     54  45  71 CALM      30.16S
CLARINDA *     SUNNY     48  41  76 CALM      30.20F
COUNCIL BLFS * SUNNY     54  41  62 MISG      30.15F
CRESTON *      SUNNY     55  37  50 W8        30.18F
HARLAN  *      SUNNY     48  41  76 S5        30.19S
LAMONI         SUNNY     57  36  45 W7        30.17S
RED OAK *      SUNNY     50  39  66 CALM      30.17F
SHENANDOAH *   SUNNY     50  41  71 CALM      30.18F
$$

IAZ047>049-059>061-072>074-084-231500-
   CENTRAL IOWA

CITY           SKY/WX    TMP DP  RH WIND       PRES   REMARKS
AMES           SUNNY     58  36  43 W8        30.15S
ANKENY *       SUNNY     55  34  44 SW5       30.17S
BOONE *        SUNNY     55  34  44 W8        30.14S
CHARITON *     SUNNY     55  36  47 W5        30.17S
DES MOINES     SUNNY     56  37  49 SW6       30.16F
GRINNELL*      SUNNY     56  31  39 W8        30.17S
KNOXVILLE *    SUNNY     54  32  43 W8        30.15F
MARSHALLTOWN   SUNNY     54  39  57 SW7       30.14F
NEWTON *       SUNNY     54  32  43 W6        30.15S
PELLA *        SUNNY     55  35  46 W6        30.18F
PERRY *          N/A     56  33  40 SW7       30.15F
$$

IAZ004>006-015-016-023>025-035-036-231500-
   NORTH CENTRAL IOWA

CITY           SKY/WX    TMP DP  RH WIND       PRES   REMARKS
ALGONA *       SUNNY     55  37  50 SW12      30.12F
CLARION *      SUNNY     54  39  58 SW6       30.14S
ESTHERVILLE    SUNNY     56  35  45 SW13      30.10F
FORT DODGE *   SUNNY     54  39  58 SW5       30.15R
MASON CITY     SUNNY     57  38  48 W7        30.13F
FOREST CITY *    N/A     55  41  58 W5        30.12S
WEBSTER CITY * SUNNY     55  36  47 W6        30.13R
IOWA FALLS *     N/A     56  37  48 W9        30.16R
$$

IAZ007>011-017>019-026>030-037>042-050>054-066-231500-
   NORTHEAST IOWA

CITY           SKY/WX    TMP DP  RH WIND       PRES   REMARKS
CEDAR RAPIDS   SUNNY     54  37  52 W6        30.15S
CHARLES CITY * SUNNY     55  37  50 VRB5      30.13S
CLINTON *      SUNNY     53  39  59 W6        30.17S
DECORAH *      SUNNY     54  36  50 W6        30.12S
DUBUQUE        SUNNY     56  37  49 W8        30.15S
MONTICELLO *   SUNNY     54  39  58 CALM      30.15F
OELWEIN *      SUNNY     54  37  54 SW8       30.14F
WATERLOO       SUNNY     58  36  43 W7        30.13F
$$

IAZ064-065-067-068-078-231500-
   EAST CENTRAL IOWA

CITY           SKY/WX    TMP DP  RH WIND       PRES   REMARKS
DAVENPORT      SUNNY     56  34  43 W6        30.16F
IOWA CITY      SUNNY     54  36  50 CALM      30.18F
MT. PLEASANT * SUNNY     55  36  48 CALM      30.17S
MUSCATINE *    SUNNY     54  37  54 CALM      30.17F
QUAD CITIES    SUNNY     55  41  59 CALM      30.16F
$$

IAZ062-063-075>077-085>089-095>099-231500-
   SOUTHEAST IOWA

CITY           SKY/WX    TMP DP  RH WIND       PRES   REMARKS
BURLINGTON     SUNNY     57  33  40 N5        30.16F
FAIRFIELD *    SUNNY     55  36  47 NW6       30.16F
FORT MADISON * SUNNY     55  39  54 CALM      30.17S
KEOKUK *       SUNNY     55  34  44 N5        30.16S
OSKALOOSA *      N/A     54  34  46 W6        30.17F
CENTERVILLE *    N/A     55  37  50 CALM      30.19S
OTTUMWA        SUNNY     54  36  50 NW3       30.17S
WASHINGTON *   SUNNY     54  39  58 W7        30.18F
$$

ABBREVIATIONS USED IN REMARKS
   TC - TEMPERATURES IN CELSIUS
  WCI - WIND CHILL INDEX
   HX - HEAT INDEX
  VSB - VISIBILITY
$$





USA.gov is the U.S. government's official web portal to all federal, state and local government web resources and services.